Hourly Data Report for September 05, 2017

All times are specified in Local Standard Time (LST). Add 1 hour to adjust for Daylight Saving Time where and when it is observed.

PETAWAWA AWOS 2
ONTARIO

45°57'00.000" N
77°19'00.000" W
130.10 m
6106396
71625
YWA

Download Data

Hourly Data (September 2017)
Hourly Data Report for September 5, 2017
Temp Definition
°C
Dew Point Temp Definition
°C
Rel Hum Definition
%
Wind Dir Definition
10's deg

Wind Spd Definition
km/h
Visibility Definition
km
Stn Press Definition
kPa
Hmdx Definition


Wind Chill Definition


Weather Definition


TIME
00:00 14.7 13.9 95 28 7 14.5 98.48     LegendNANA
01:00 13.5 13.3 99   0 14.5 98.53     LegendNANA
02:00 13.2 12.9 98 27 7 14.5 98.57     LegendNANA
03:00 10.7 10.7 100 24 4 6.4 98.66     LegendNANA
04:00 10.2 10.2 100 24 6 5.6 98.73     LegendNANA
05:00 10.2 10.2 100 21 4 14.5 98.83     LegendNANA
06:00 12.3 10.8 91 30 15 14.5 98.91     LegendNANA
07:00 11.9 11.4 97   0 14.5 98.96     LegendNANA
08:00 13.6 11.7 88 30 9 14.5 98.99     LegendNANA
09:00 15.1 11.3 78 32 11 14.5 99.01     LegendNANA
10:00 16.5 11.5 72 30 9 14.5 99.02     LegendNANA
11:00
12:00 17.8 12.1 69 35 11 14.5 99.01     LegendNANA
13:00 18.4 11.5 64 34 13 14.5 99.01     LegendNANA
14:00 18.9 12.0 64 35 9 14.5 99.02     LegendNANA
15:00 18.1 12.9 72 6 6 14.5 99.04     LegendNANA
16:00 18.0 11.7 67 35 7 14.5 99.06     LegendNANA
17:00 18.1 10.7 62 33 13 14.5 99.09     LegendNANA
18:00 17.4 11.7 69 32 9 14.5 99.13     LegendNANA
19:00 16.1 10.5 69 32 7 14.5 99.16     LegendNANA
20:00 14.2 13.0 92   0 14.5 99.24     LegendNANA
21:00 14.3 12.5 89 29 7 14.5 99.29     LegendNANA
22:00 13.8 12.9 94 28 6 14.5 99.32     Rain
23:00 13.3 12.3 94 27 4 14.5 99.36     LegendNANA

Notes on Data Quality.

Legend

  • E = Estimated
  • M = Missing
  • NA = Not Available
  • ‡ = Partner data that is not subject to review by the National Climate Archives
Date modified: